Tracking 31027 objects as of 19-Jul-2025
HD Live streaming from Space Station
objects crossing your sky now

FENGYUN 1C DEB

Track FENGYUN 1C DEB now!
10-day predictions


NORAD ID: 30640
Int'l Code: 1999-025ANX
Perigee: 794.1 km
Apogee: 914.1 km
Inclination: 99.1 °
Period: 101.9 minutes
Semi major axis: 7225 km
RCS: 0.018 m2 (small)
Launch date: May 10, 1999
Source: People's Republic of China (PRC)
Launch site: Taiyaun Space Center, China (TSC)

Note: This is SATELLITE DEBRIS
Your satellite tracking list
FENGYUN 1C DEB
Track 1 satellite(s)




NASA's NSSDC Master Catalog

Two Line Element Set (TLE):
1 30640U 99025ANX 25199.46114972  .00001872  00000-0  98324-3 0  9995
2 30640  99.0681 268.6058 0083072 154.8079 222.6135 14.13633859943647
Source of the keplerian elements: AFSPC